AAL1432 CYWG-KATW

Flight info

Callsign AAL1432
Flight time 1h 16m
Altitude 39000
Route OMLOT DCT TUKAD DCT DLH
Aircraft B738/M-SDE2E3FGHIRWXY/LB1

Departure

Time 2026-05-07 21:01
Airport Winnipeg / James Armstrong Richardson International Airport (CYWG)

Arrival

Time 2026-05-07 22:17
Airport Appleton International Airport (KATW)
Time Latitude Longitude Altitude Speed Heading
2026-05-07 20:28 49.90665 -97.22675 786 ft 0 kts 163°
2026-05-07 20:52 49.90666 -97.22675 782 ft 1 kts 163°
2026-05-07 20:53 49.90688 -97.22684 782 ft 4 kts 164°
2026-05-07 20:53 49.90713 -97.22695 782 ft 4 kts 175°
2026-05-07 20:53 49.90736 -97.22689 782 ft 4 kts 225°
2026-05-07 20:53 49.90746 -97.22662 782 ft 1 kts 259°
2026-05-07 20:54 49.90746 -97.22661 782 ft 0 kts 259°
2026-05-07 20:55 49.90746 -97.22663 782 ft 1 kts 259°
2026-05-07 20:56 49.90741 -97.22710 782 ft 8 kts 259°
2026-05-07 20:56 49.90729 -97.22798 782 ft 8 kts 257°
2026-05-07 20:56 49.90717 -97.22888 782 ft 10 kts 259°
2026-05-07 20:56 49.90701 -97.23011 782 ft 12 kts 258°
2026-05-07 20:57 49.90684 -97.23136 781 ft 12 kts 259°
2026-05-07 20:57 49.90668 -97.23260 781 ft 12 kts 253°
2026-05-07 20:57 49.90607 -97.23328 782 ft 11 kts 197°
2026-05-07 20:57 49.90534 -97.23367 783 ft 11 kts 199°
2026-05-07 20:58 49.90459 -97.23406 783 ft 12 kts 198°
2026-05-07 20:58 49.90371 -97.23451 783 ft 15 kts 199°
2026-05-07 20:58 49.90278 -97.23412 787 ft 15 kts 138°
2026-05-07 20:58 49.90201 -97.23306 788 ft 14 kts 139°
2026-05-07 20:59 49.90125 -97.23202 787 ft 15 kts 138°
2026-05-07 20:59 49.90040 -97.23086 786 ft 17 kts 139°
2026-05-07 20:59 49.89942 -97.22952 784 ft 19 kts 139°
2026-05-07 20:59 49.89844 -97.22816 783 ft 19 kts 137°
2026-05-07 21:00 49.89752 -97.22678 785 ft 18 kts 136°
2026-05-07 21:00 49.89667 -97.22575 786 ft 14 kts 180°
2026-05-07 21:00 49.89596 -97.22674 785 ft 14 kts 229°
2026-05-07 21:00 49.89545 -97.22793 784 ft 13 kts 270°
2026-05-07 21:01 49.89603 -97.22904 783 ft 19 kts 318°
2026-05-07 21:01 49.89928 -97.23348 786 ft 105 kts 318°
2026-05-07 21:01 49.90660 -97.24339 928 ft 164 kts 317°
2026-05-07 21:01 49.91533 -97.25529 2004 ft 168 kts 316°
2026-05-07 21:02 49.92455 -97.26807 2855 ft 191 kts 316°
2026-05-07 21:02 49.93517 -97.28273 3141 ft 217 kts 317°
2026-05-07 21:02 49.94703 -97.29897 3527 ft 238 kts 318°
2026-05-07 21:02 49.95979 -97.31619 4347 ft 243 kts 321°
2026-05-07 21:03 49.97491 -97.32710 5352 ft 248 kts 348°
2026-05-07 21:03 49.99216 -97.32668 6463 ft 251 kts
2026-05-07 21:03 50.00843 -97.31577 7370 ft 263 kts 31°
2026-05-07 21:03 50.02113 -97.29426 8195 ft 280 kts 57°
2026-05-07 21:04 50.02672 -97.26460 9069 ft 294 kts 83°
2026-05-07 21:04 50.02358 -97.23275 9941 ft 307 kts 109°
2026-05-07 21:04 50.01189 -97.20424 10560 ft 322 kts 133°
2026-05-07 21:04 49.99474 -97.18096 11231 ft 331 kts 142°
2026-05-07 21:05 49.97603 -97.15963 12015 ft 336 kts 144°
2026-05-07 21:05 49.95677 -97.13835 12804 ft 342 kts 144°
2026-05-07 21:05 49.93755 -97.11682 13586 ft 347 kts 144°
2026-05-07 21:05 49.91798 -97.09444 14293 ft 352 kts 143°
2026-05-07 21:06 49.89830 -97.07153 15033 ft 356 kts 142°
2026-05-07 21:06 49.87845 -97.04818 15759 ft 360 kts 142°
2026-05-07 21:06 49.85845 -97.02452 16487 ft 364 kts 142°
2026-05-07 21:06 49.83820 -97.00050 17203 ft 369 kts 142°
2026-05-07 21:07 49.81769 -96.97618 17924 ft 373 kts 142°
2026-05-07 21:07 49.79696 -96.95159 18569 ft 378 kts 142°
2026-05-07 21:07 49.77588 -96.92663 19191 ft 382 kts 142°
2026-05-07 21:07 49.75459 -96.90144 19762 ft 387 kts 142°
2026-05-07 21:08 49.73300 -96.87593 20316 ft 394 kts 142°
2026-05-07 21:08 49.71105 -96.85003 20895 ft 399 kts 141°
2026-05-07 21:08 49.69003 -96.82181 21481 ft 402 kts 131°
2026-05-07 21:08 49.67136 -96.79011 22074 ft 405 kts 129°
2026-05-07 21:09 49.65271 -96.75705 22684 ft 409 kts 128°
2026-05-07 21:09 49.63435 -96.72425 23710 ft 398 kts 129°
2026-05-07 21:09 49.61616 -96.69192 24268 ft 401 kts 129°
2026-05-07 21:09 49.59759 -96.65913 24610 ft 409 kts 129°
2026-05-07 21:10 49.57867 -96.62599 25018 ft 414 kts 129°
2026-05-07 21:10 49.55973 -96.59302 25480 ft 417 kts 129°
2026-05-07 21:10 49.54029 -96.55930 25867 ft 423 kts 129°
2026-05-07 21:10 49.52052 -96.52511 26233 ft 429 kts 129°
2026-05-07 21:11 49.50057 -96.49066 26690 ft 432 kts 129°
2026-05-07 21:11 49.48047 -96.45602 27148 ft 435 kts 129°
2026-05-07 21:11 49.43975 -96.38597 27966 ft 443 kts 129°
2026-05-07 21:12 49.41908 -96.35048 28369 ft 447 kts 129°
2026-05-07 21:12 49.39823 -96.31471 28764 ft 451 kts 129°
2026-05-07 21:12 49.37748 -96.27918 29164 ft 454 kts 129°
2026-05-07 21:12 49.35629 -96.24294 29538 ft 458 kts 129°
2026-05-07 21:13 49.33507 -96.20671 30216 ft 453 kts 130°
2026-05-07 21:13 49.31402 -96.17084 30651 ft 453 kts 130°
2026-05-07 21:13 49.29281 -96.13471 30872 ft 458 kts 130°
2026-05-07 21:13 49.27136 -96.09821 31107 ft 463 kts 130°
2026-05-07 21:14 49.24974 -96.06148 31406 ft 466 kts 130°
2026-05-07 21:14 49.22800 -96.02460 31720 ft 467 kts 130°
2026-05-07 21:14 49.20637 -95.98797 32022 ft 470 kts 130°
2026-05-07 21:14 49.18437 -95.95073 32297 ft 473 kts 130°
2026-05-07 21:15 49.16228 -95.91342 32550 ft 475 kts 130°
2026-05-07 21:15 49.13995 -95.87576 32781 ft 479 kts 130°
2026-05-07 21:15 49.11749 -95.83793 32946 ft 484 kts 130°
2026-05-07 21:15 49.09476 -95.79970 33196 ft 486 kts 130°
2026-05-07 21:16 49.07188 -95.76127 33506 ft 487 kts 130°
2026-05-07 21:16 49.04932 -95.72342 33818 ft 489 kts 130°
2026-05-07 21:16 49.02647 -95.68514 34130 ft 488 kts 130°
2026-05-07 21:16 49.00365 -95.64697 34425 ft 487 kts 130°
2026-05-07 21:17 48.98079 -95.60877 34645 ft 489 kts 130°
2026-05-07 21:17 48.95785 -95.57050 34827 ft 491 kts 130°
2026-05-07 21:17 48.93473 -95.53197 34975 ft 493 kts 131°
2026-05-07 21:17 48.91148 -95.49329 35098 ft 497 kts 131°
2026-05-07 21:18 48.88811 -95.45446 35264 ft 499 kts 131°
2026-05-07 21:18 48.86466 -95.41556 35490 ft 499 kts 131°
2026-05-07 21:18 48.84115 -95.37663 35704 ft 500 kts 131°
2026-05-07 21:18 48.81798 -95.33832 35894 ft 501 kts 131°
2026-05-07 21:19 48.79432 -95.29925 36085 ft 502 kts 131°
2026-05-07 21:19 48.77095 -95.26073 36324 ft 502 kts 131°
2026-05-07 21:19 48.74734 -95.22186 36637 ft 500 kts 131°
2026-05-07 21:19 48.72379 -95.18315 36998 ft 497 kts 131°
2026-05-07 21:20 48.70034 -95.14467 37304 ft 495 kts 132°
2026-05-07 21:20 48.67701 -95.10643 37499 ft 495 kts 132°
2026-05-07 21:20 48.65359 -95.06809 37662 ft 496 kts 132°
2026-05-07 21:20 48.63011 -95.02973 37879 ft 496 kts 132°
2026-05-07 21:21 48.60670 -94.99152 38125 ft 495 kts 132°
2026-05-07 21:21 48.58333 -94.95343 38358 ft 494 kts 132°
2026-05-07 21:21 48.55992 -94.91536 38543 ft 494 kts 132°
2026-05-07 21:21 48.53683 -94.87783 38675 ft 494 kts 132°
2026-05-07 21:22 48.51339 -94.83980 38818 ft 494 kts 132°
2026-05-07 21:22 48.48995 -94.80183 38952 ft 494 kts 132°
2026-05-07 21:22 48.44286 -94.72572 39033 ft 498 kts 133°
2026-05-07 21:23 48.39523 -94.64894 39025 ft 503 kts 133°
2026-05-07 21:23 48.34754 -94.57232 39018 ft 507 kts 133°
2026-05-07 21:24 48.29913 -94.49475 39011 ft 509 kts 133°
2026-05-07 21:24 48.25051 -94.41708 39007 ft 510 kts 133°
2026-05-07 21:25 48.20185 -94.33959 39005 ft 510 kts 133°
2026-05-07 21:25 48.15341 -94.26267 39018 ft 508 kts 133°
2026-05-07 21:26 48.10487 -94.18582 39007 ft 506 kts 133°
2026-05-07 21:26 48.05648 -94.10942 39011 ft 504 kts 133°
2026-05-07 21:27 48.00825 -94.03351 39015 ft 502 kts 133°
2026-05-07 21:27 47.96018 -93.95806 39017 ft 500 kts 133°
2026-05-07 21:28 47.91222 -93.88300 39013 ft 499 kts 134°
2026-05-07 21:28 47.86436 -93.80831 39018 ft 498 kts 134°
2026-05-07 21:29 47.81684 -93.73437 39020 ft 497 kts 134°
2026-05-07 21:29 47.76894 -93.66005 39025 ft 497 kts 134°
2026-05-07 21:30 47.72097 -93.58582 39032 ft 498 kts 134°
2026-05-07 21:30 47.67284 -93.51156 39037 ft 499 kts 134°
2026-05-07 21:31 47.62481 -93.43766 39038 ft 501 kts 134°
2026-05-07 21:31 47.57625 -93.36317 39036 ft 502 kts 134°
2026-05-07 21:32 47.52757 -93.28870 39019 ft 504 kts 134°
2026-05-07 21:32 47.47864 -93.21405 39021 ft 505 kts 134°
2026-05-07 21:33 47.42987 -93.13987 39014 ft 506 kts 134°
2026-05-07 21:33 47.38073 -93.06533 38999 ft 507 kts 134°
2026-05-07 21:34 47.33141 -92.99073 38977 ft 507 kts 135°
2026-05-07 21:34 47.29044 -92.92893 38986 ft 507 kts 135°
2026-05-07 21:35 47.23313 -92.84271 39003 ft 506 kts 135°
2026-05-07 21:35 47.18373 -92.76863 39025 ft 506 kts 135°
2026-05-07 21:36 47.14273 -92.70731 39015 ft 506 kts 135°
2026-05-07 21:36 47.09341 -92.63372 39031 ft 505 kts 135°
2026-05-07 21:37 47.04415 -92.56042 39020 ft 504 kts 135°
2026-05-07 21:37 46.99487 -92.48731 39019 ft 504 kts 135°
2026-05-07 21:38 46.94556 -92.41433 39013 ft 504 kts 135°
2026-05-07 21:38 46.89615 -92.34143 38993 ft 504 kts 135°
2026-05-07 21:39 46.84674 -92.26869 38985 ft 504 kts 135°
2026-05-07 21:39 46.79779 -92.19606 38991 ft 505 kts 132°
2026-05-07 21:40 46.75427 -92.11556 38994 ft 505 kts 127°
2026-05-07 21:40 46.71231 -92.03332 38998 ft 505 kts 127°
2026-05-07 21:41 46.67000 -91.95131 39000 ft 506 kts 127°
2026-05-07 21:41 46.62749 -91.87025 39029 ft 507 kts 128°
2026-05-07 21:42 46.58445 -91.78887 39037 ft 507 kts 128°
2026-05-07 21:42 46.54132 -91.70760 39019 ft 508 kts 128°
2026-05-07 21:43 46.49816 -91.62641 39039 ft 508 kts 128°
2026-05-07 21:43 46.45491 -91.54529 39044 ft 508 kts 128°
2026-05-07 21:44 46.41162 -91.46430 39031 ft 508 kts 128°
2026-05-07 21:44 46.36831 -91.38353 39029 ft 507 kts 128°
2026-05-07 21:45 46.32500 -91.30298 39023 ft 506 kts 128°
2026-05-07 21:45 46.28189 -91.22304 39025 ft 506 kts 128°
2026-05-07 21:46 46.23855 -91.14291 39043 ft 505 kts 129°
2026-05-07 21:46 46.19523 -91.06303 39025 ft 504 kts 129°
2026-05-07 21:47 46.15190 -90.98337 39030 ft 503 kts 129°
2026-05-07 21:47 46.10861 -90.90400 39035 ft 502 kts 129°
2026-05-07 21:48 46.06539 -90.82499 39038 ft 501 kts 129°
2026-05-07 21:48 46.02247 -90.74674 39058 ft 501 kts 129°
2026-05-07 21:49 45.97917 -90.66804 39038 ft 501 kts 129°
2026-05-07 21:49 45.93587 -90.58955 39022 ft 500 kts 130°
2026-05-07 21:50 45.89258 -90.51130 39018 ft 500 kts 130°
2026-05-07 21:50 45.84922 -90.43313 39014 ft 500 kts 130°
2026-05-07 21:51 45.80605 -90.35553 39014 ft 501 kts 130°
2026-05-07 21:51 45.76247 -90.27742 39001 ft 502 kts 130°
2026-05-07 21:52 45.71874 -90.19924 39024 ft 503 kts 130°
2026-05-07 21:52 45.67481 -90.12093 39051 ft 505 kts 130°
2026-05-07 21:53 45.63067 -90.04245 39047 ft 506 kts 130°
2026-05-07 21:53 45.58644 -89.96405 39035 ft 507 kts 130°
2026-05-07 21:54 45.54235 -89.88610 39014 ft 508 kts 131°
2026-05-07 21:54 45.52003 -89.84673 38662 ft 516 kts 131°
2026-05-07 21:54 45.49731 -89.80673 38057 ft 517 kts 131°
2026-05-07 21:55 45.47481 -89.76713 37429 ft 514 kts 130°
2026-05-07 21:55 45.45233 -89.72764 36813 ft 512 kts 130°
2026-05-07 21:55 45.42989 -89.68827 36202 ft 511 kts 130°
2026-05-07 21:55 45.40751 -89.64905 35573 ft 511 kts 130°
2026-05-07 21:56 45.38496 -89.60960 34861 ft 513 kts 130°
2026-05-07 21:56 45.36238 -89.57017 34180 ft 514 kts 130°
2026-05-07 21:56 45.33972 -89.53064 33353 ft 517 kts 130°
2026-05-07 21:56 45.31697 -89.49102 32568 ft 517 kts 130°
2026-05-07 21:57 45.29422 -89.45144 31789 ft 517 kts 130°
2026-05-07 21:57 45.27143 -89.41184 31001 ft 518 kts 130°
2026-05-07 21:57 45.24857 -89.37218 30141 ft 520 kts 130°
2026-05-07 21:57 45.22563 -89.33244 29146 ft 521 kts 130°
2026-05-07 21:58 45.20295 -89.29320 28165 ft 521 kts 130°
2026-05-07 21:58 45.17999 -89.25353 27167 ft 521 kts 130°
2026-05-07 21:58 45.15698 -89.21383 26188 ft 520 kts 131°
2026-05-07 21:58 45.13399 -89.17422 25378 ft 517 kts 131°
2026-05-07 21:59 45.11129 -89.13516 24667 ft 510 kts 131°
2026-05-07 21:59 45.08885 -89.09659 23924 ft 505 kts 131°
2026-05-07 21:59 45.06660 -89.05842 23201 ft 500 kts 131°
2026-05-07 21:59 45.04456 -89.02064 22392 ft 494 kts 131°
2026-05-07 22:00 45.02280 -88.98340 21672 ft 487 kts 132°
2026-05-07 22:00 45.00132 -88.94669 20964 ft 480 kts 132°
2026-05-07 22:00 44.98011 -88.91050 20243 ft 474 kts 132°
2026-05-07 22:00 44.95922 -88.87488 19570 ft 468 kts 132°
2026-05-07 22:01 44.93853 -88.83967 18917 ft 462 kts 132°
2026-05-07 22:01 44.91840 -88.80545 18258 ft 456 kts 132°
2026-05-07 22:01 44.89825 -88.77123 17510 ft 451 kts 132°
2026-05-07 22:01 44.87829 -88.73739 16794 ft 445 kts 132°
2026-05-07 22:02 44.85863 -88.70409 16136 ft 439 kts 132°
2026-05-07 22:02 44.83924 -88.67128 15463 ft 433 kts 132°
2026-05-07 22:02 44.82005 -88.63885 14834 ft 428 kts 132°
2026-05-07 22:02 44.80107 -88.60682 14206 ft 423 kts 132°
2026-05-07 22:03 44.78233 -88.57522 13618 ft 417 kts 132°
2026-05-07 22:03 44.76384 -88.54408 12965 ft 412 kts 132°
2026-05-07 22:03 44.74557 -88.51333 12361 ft 406 kts 132°
2026-05-07 22:03 44.72759 -88.48311 11769 ft 400 kts 132°
2026-05-07 22:04 44.70988 -88.45336 11194 ft 394 kts 132°
2026-05-07 22:04 44.69260 -88.42437 11029 ft 378 kts 132°
2026-05-07 22:04 44.67604 -88.39659 10844 ft 364 kts 132°
2026-05-07 22:04 44.66010 -88.36989 10685 ft 350 kts 132°
2026-05-07 22:05 44.64470 -88.34413 10540 ft 338 kts 132°
2026-05-07 22:05 44.62982 -88.31927 10402 ft 327 kts 133°
2026-05-07 22:05 44.61542 -88.29524 10269 ft 316 kts 133°
2026-05-07 22:05 44.60149 -88.27199 10119 ft 306 kts 133°
2026-05-07 22:06 44.58817 -88.24977 10024 ft 296 kts 134°
2026-05-07 22:06 44.57507 -88.22795 9823 ft 290 kts 134°
2026-05-07 22:06 44.56134 -88.20754 9532 ft 282 kts 149°
2026-05-07 22:06 44.54397 -88.19740 9409 ft 263 kts 174°
2026-05-07 22:07 44.52589 -88.19522 9057 ft 259 kts 186°
2026-05-07 22:07 44.50797 -88.19621 8776 ft 256 kts 188°
2026-05-07 22:07 44.49043 -88.19768 8500 ft 255 kts 188°
2026-05-07 22:07 44.47278 -88.19914 8226 ft 253 kts 188°
2026-05-07 22:08 44.45520 -88.20051 7951 ft 253 kts 187°
2026-05-07 22:08 44.43770 -88.20178 7678 ft 252 kts 187°
2026-05-07 22:08 44.42022 -88.20298 7406 ft 251 kts 187°
2026-05-07 22:08 44.40278 -88.20413 7129 ft 250 kts 187°
2026-05-07 22:09 44.38537 -88.20526 6864 ft 250 kts 186°
2026-05-07 22:09 44.36800 -88.20635 6599 ft 249 kts 186°
2026-05-07 22:09 44.35067 -88.20743 6342 ft 249 kts 186°
2026-05-07 22:09 44.33330 -88.20852 6065 ft 249 kts 186°
2026-05-07 22:10 44.31599 -88.20959 5788 ft 249 kts 186°
2026-05-07 22:10 44.29892 -88.21063 5544 ft 248 kts 186°
2026-05-07 22:10 44.28164 -88.21169 5286 ft 248 kts 186°
2026-05-07 22:10 44.26442 -88.21273 5083 ft 245 kts 186°
2026-05-07 22:11 44.24769 -88.21380 4981 ft 237 kts 188°
2026-05-07 22:11 44.23245 -88.21995 4864 ft 222 kts 212°
2026-05-07 22:11 44.21894 -88.22984 4784 ft 218 kts 211°
2026-05-07 22:11 44.20559 -88.23916 4708 ft 211 kts 211°
2026-05-07 22:12 44.19282 -88.24796 4528 ft 202 kts 211°
2026-05-07 22:12 44.18131 -88.25793 4487 ft 190 kts 233°
2026-05-07 22:12 44.17752 -88.27391 4415 ft 170 kts 279°
2026-05-07 22:12 44.18019 -88.28959 4218 ft 167 kts 287°
2026-05-07 22:13 44.18393 -88.30493 4005 ft 167 kts 289°
2026-05-07 22:13 44.18811 -88.31986 3792 ft 163 kts 292°
2026-05-07 22:13 44.19270 -88.33420 3564 ft 159 kts 294°
2026-05-07 22:13 44.19733 -88.34788 3355 ft 153 kts 295°
2026-05-07 22:14 44.20179 -88.36081 3192 ft 140 kts 295°
2026-05-07 22:14 44.20584 -88.37243 3020 ft 133 kts 295°
2026-05-07 22:14 44.20993 -88.38412 2817 ft 134 kts 295°
2026-05-07 22:14 44.21400 -88.39576 2622 ft 133 kts 295°
2026-05-07 22:15 44.21800 -88.40715 2461 ft 130 kts 295°
2026-05-07 22:15 44.22196 -88.41842 2294 ft 132 kts 295°
2026-05-07 22:15 44.22602 -88.42999 2127 ft 133 kts 295°
2026-05-07 22:15 44.23010 -88.44161 1946 ft 133 kts 295°
2026-05-07 22:16 44.23413 -88.45307 1759 ft 131 kts 295°
2026-05-07 22:16 44.23812 -88.46429 1623 ft 127 kts 295°
2026-05-07 22:16 44.24212 -88.47545 1425 ft 130 kts 294°
2026-05-07 22:16 44.24612 -88.48674 1254 ft 128 kts 292°
2026-05-07 22:17 44.24999 -88.49783 1104 ft 125 kts 290°
2026-05-07 22:17 44.25377 -88.50870 934 ft 122 kts 292°
2026-05-07 22:17 44.25711 -88.51824 896 ft 88 kts 297°
2026-05-07 22:17 44.25897 -88.52347 902 ft 31 kts 298°
2026-05-07 22:18 44.25977 -88.52469 901 ft 13 kts 11°
2026-05-07 22:18 44.26033 -88.52426 902 ft 5 kts 61°
2026-05-07 22:18 44.26023 -88.52359 902 ft 9 kts 115°
2026-05-07 22:19 44.25995 -88.52279 903 ft 10 kts 116°
2026-05-07 22:19 44.25956 -88.52168 900 ft 15 kts 116°
2026-05-07 22:19 44.25909 -88.52035 900 ft 15 kts 116°
2026-05-07 22:19 44.25863 -88.51906 900 ft 14 kts 115°
2026-05-07 22:20 44.25833 -88.51800 897 ft 11 kts 92°
2026-05-07 22:20 44.25844 -88.51730 896 ft 12 kts 74°
2026-05-07 22:20 44.25874 -88.51580 888 ft 10 kts 74°
2026-05-07 22:20 44.25889 -88.51507 888 ft 10 kts 74°
2026-05-07 22:21 44.25905 -88.51432 888 ft 5 kts 66°
2026-05-07 22:21 44.25934 -88.51419 888 ft 4 kts
2026-05-07 22:21 44.25948 -88.51419 888 ft 2 kts 358°
2026-05-07 22:21 44.25955 -88.51420 888 ft 0 kts 358°
2026-05-07 22:22 44.25958 -88.51420 888 ft 2 kts 359°
2026-05-07 22:22 44.25967 -88.51420 888 ft 0 kts 359°